Location: ????????
(60.5616°N, 46.8254°E)
Time: 10:01:30
(UTC+00:00)

MOS 1 - Pass Details

Date: 18 February 2020
Orbit: 879 x 891 km, 99.2° (Epoch: 09 April)

Event Time Altitude Azimuth Distance (km) Brightness Sun altitude
Rises 15:40:59 0° 153° (SSE) 3,484 7.1 -14.4°
Reaches altitude 10° 15:43:22 10° 152° (SSE) 2,547 6.4 -14.6°
Maximum altitude 15:49:02 79° 67° (ENE) 907 4.2 -15.3°
Drops below altitude 10° 15:54:44 10° 342° (NNW) 2,555 7.0 -16.0°
Sets 15:57:07 0° 341° (NNW) 3,496 7.7 -16.3°
